User: anonymous   Login
Location: ???????
(55.4362°N, 38.1183°E)
Time: 20:45:51
(UTC+00:00)
Language:

FENGYUN 3B - Orbit

View from above orbital plane
View from above orbital plane
View from above satellite
View from above satellite

Ground track
Ground track

The orbit data is extracted from the following two-line orbital elements,

1 37214U 10059A   22020.77116499 -.00000046  00000-0  58532-8 0  9994
2 37214  99.0900  24.1325 0023118  53.1039 307.2251 14.14241278580084
Epoch (UTC): 20 January 2022 18:30:28
Eccentricity: 0.0023118
inclination: 99.0900°
perigee height: 828 km
apogee height: 861 km
right ascension of ascending node: 24.1325°
argument of perigee: 53.1039°
revolutions per day: 14.14241278
mean anomaly at epoch: 307.2251°
orbit number at epoch: 58008

The dashed part of the orbit path shows where the satellite is in the earth's shadow,  

DLR